Flag for USA

Past Weather in 40°01'05.3"N, 75°42'03.9"W, USA — Yesterday and Last 2 Weeks

Currently: 43 °F. Light rain. Fog. (Weather station: Philadelphia International Airport, USA). See more current weather

Past Weather in 40°01'05.3"N, 75°42'03.9"W — Graph

°F

40°01'05.3"N, 75°42'03.9"W Temperature Yesterday

Maximum temperature yesterday: 45 °F (at 11:54 pm)
Minimum temperature yesterday: 39 °F (at 4:54 am)
Average temperature yesterday: 42 °F

High & Low Weather Summary for the Past Weeks

 TemperatureHumidityPressure
High56 °F (Feb 24, 2:54 pm)100% (Feb 16, 12:54 am)30.59 "Hg (Feb 16, 12:54 am)
Low22 °F (Feb 21, 6:54 am)25% (Feb 26, 2:54 pm)29.58 "Hg (Feb 16, 5:12 am)
Average36 °F75%30.13 "Hg
* Reported Feb 14 6:54 am — Mar 1 6:54 am, 40°01'05.3"N, 75°42'03.9"W. Weather by CustomWeather, © 2021

Note: Actual official high and low records may vary slightly from our data, if they occured in-between our weather recording intervals... More about our weather records

40°01'05.3"N, 75°42'03.9"W Weather History for the Previous 24 Hours

Scroll right to see more
 ConditionsComfort  
Time TempWeatherWind HumidityBarometerVisibility
6:54 am
Mon, Mar 1
42 °FLight rain. Fog.5 mph96%29.71 "Hg5 mi
6:22 am42 °FLight rain. Fog.6 mph96%29.73 "Hg5 mi
5:54 am42 °FLight rain. Fog.No wind96%29.73 "Hg5 mi
5:05 am42 °FLight rain. Fog.5 mph100%29.74 "Hg2 mi
4:54 am43 °FLight rain. Fog.5 mph97%29.74 "Hg1 mi
4:24 am43 °FLight rain. Fog.5 mph97%29.73 "Hg1 mi
3:54 am43 °FLight rain. Fog.6 mph97%29.74 "Hg2 mi
3:07 am43 °FFog.No wind100%29.76 "Hg2 mi
2:33 am44 °FLight rain. Fog.6 mph96%29.78 "Hg1 mi
1:54 am44 °FLight rain. Fog.No wind96%29.81 "Hg1 mi
12:54 am44 °FLight rain. Fog.No wind96%29.83 "Hg1 mi
11:54 pm
Sun, Feb 28
45 °FDrizzle. Fog.No wind100%29.85 "Hg1 mi
10:54 pm44 °FDrizzle. Fog.6 mph100%29.90 "Hg1 mi
10:19 pm44 °FDrizzle. Fog.3 mph100%29.90 "Hg1 mi
9:54 pm44 °FDrizzle. Fog.5 mph96%29.92 "Hg1 mi
8:54 pm43 °FDrizzle. Fog.7 mph100%29.95 "Hg1 mi
8:07 pm43 °FLight rain. Fog.7 mph100%29.97 "Hg1 mi
7:54 pm43 °FLight rain. Fog.6 mph97%29.98 "Hg2 mi
6:54 pm42 °FLow clouds.5 mph96%30.02 "Hg7 mi
6:23 pm43 °FLight rain. Low clouds.7 mph97%30.03 "Hg7 mi
5:54 pm42 °FLight rain. Fog.7 mph96%30.04 "Hg5 mi
5:23 pm42 °FLight rain. Fog.7 mph96%30.07 "Hg6 mi
4:54 pm42 °FRain. Fog.7 mph96%30.07 "Hg4 mi
4:38 pm42 °FRain. Fog.7 mph96%30.08 "Hg3 mi
3:54 pm42 °FRain. Fog.9 mph96%30.11 "Hg2 mi
3:10 pm42 °FRain. Fog.10 mph96%30.13 "Hg2 mi
2:33 pm43 °FRain. Fog.7 mph93%30.16 "Hg2 mi
1:54 pm42 °FRain. Fog.8 mph96%30.19 "Hg2 mi
1:30 pm42 °FRain. Fog.7 mph92%30.21 "Hg2 mi
12:54 pm42 °FRain. Fog.6 mph92%30.23 "Hg2 mi
12:18 pm42 °FRain. Fog.3 mph89%30.26 "Hg2 mi
11:54 am42 °FRain. Fog.6 mph89%30.24 "Hg4 mi
11:32 am42 °FRain. Fog.9 mph89%30.24 "Hg4 mi
10:54 am43 °FLight rain. Fog.7 mph86%30.25 "Hg5 mi
9:54 am43 °FLight rain. Fog.6 mph82%30.26 "Hg6 mi
8:54 am43 °FLight rain. Fog.7 mph79%30.28 "Hg6 mi
Weather by CustomWeather, © 2021

See weather overview